Weather in Bolshiye Gorki

Russia / Tver Oblast     56°28′12″N   35°51′12″E
temp.,
°C
wind,
m/s
gust,
m/s
humid.,
%
clouds,
%
prec.,
mm/h
press.,
hPa
HPBL,
m
8 may, sat
sat800:00+5se3884100 0.0 1010160
03:00+7s41279100 0.0 1009500
06:00+7se51391100 0.9 1007998
09:00+7sse41196100 1.8 1006659
12:00+8se2797100 1.6 1005570
15:00+8e0097100 5.1 1004106
18:00+8nnw3696100 2.6 1003543
21:00+6nnw61191100 4.5 10031020
9 may, sun
sun900:00+4nw61386100 0.1 1005820
03:00+3nw61385100 0.1 1007913
06:00+3nw61287100 0.0 10101093
09:00+4wnw51178100 0.0 1013937
12:00+10nw6947100 0.0 10142166
15:00+12nw6840100 0.0 10172513
18:00+11nw48445 0.0 10191931
21:00+5wnw39650 0.0 1022187
10 may, mon
mon1000:00+3nw25694 0.0 102569
03:00+2w22715 0.0 102713
06:00+3sw23725 0.0 102868
09:00+10ssw34546 0.0 1029515
12:00+14sw45415 0.0 10281620
15:00+14wsw344869 0.0 10281339
18:00+15ssw245569 0.0 10281078
21:00+9s22785 0.0 102936
11 may, tue
tue1100:00+7ssw22835 0.0 103011
03:00+6ssw11855 0.0 103110
06:00+7sse22825 0.0 103259
09:00+14sse23575 0.0 1031453
12:00+17se34458 0.0 10301261
15:00+19ese34445 0.0 10291452
18:00+18ese35555 0.0 1028746
21:00+11ese247680 0.0 102849
12 may, wed
wed1200:00+9ese22815 0.0 102921
03:00+7e23820 0.0 102842
06:00+8e26820 0.0 1028145
09:00+15e475954 0.0 1027515
12:00+19e57535 0.0 10261053
15:00+20ese5860100 0.1 10241352
18:00+17ese397097 0.0 1024508
21:00+15e238199 0.0 102350